Wind_Speed
8 7 7 7 8 7 7 7 6 5 5 5 5 5 5 5 6 6 6 7 8 8 9 9 9 9 10 10 10 11 12 12 12 11 11 11 11 12
8 8 8 8 8 8 8 7 7 7 6 6 6 6 6 6 7 7 7 8 8 9 9 9 9 9 10 11 11 11 12 12 11 11 11 12 12 12
9 9 8 8 8 8 8 8 7 7 7 7 7 7 7 7 7 8 7 8 8 9 8 9 9 10 11 11 11 11 12 13 13 12 13 13 13 14
9 9 9 9 8 8 8 7 7 7 7 7 7 7 7 7 7 7 7 8 8 8 8 9 10 11 11 12 12 13 13 14 14 14 14 14 14 15
10 9 9 9 8 8 8 8 8 8 8 8 8 8 8 8 8 8 8 8 9 9 9 10 11 11 12 12 13 14 14 15 15 16 16 16 16 16
10 10 9 9 9 9 9 8 8 8 8 8 9 9 9 8 8 9 9 9 10 10 11 11 12 13 13 13 13 14 15 16 16 17 18 18 18 18
10 10 10 10 10 10 10 10 9 9 9 9 9 9 9 9 9 9 9 10 10 11 11 11 12 13 13 14 14 15 16 16 17 18 19 19 19 20
11 11 11 11 11 11 11 12 11 10 10 10 10 10 10 10 10 10 10 11 12 12 12 13 13 13 14 14 15 16 17 17 18 19 19 20 20 20
13 12 12 12 12 12 12 12 12 11 11 11 11 11 12 12 12 12 13 13 13 14 14 14 15 15 16 16 16 17 17 18 19 19 20 21 21 20
14 14 14 14 13 13 13 13 13 13 13 13 13 13 14 14 14 14 14 14 15 15 16 16 16 17 17 17 18 19 19 20 20 21 21 22 22 22
15 15 15 15 15 15 15 14 13 13 14 13 14 14 15 15 15 16 16 16 16 17 17 18 18 19 19 19 19 20 20 21 22 22 22 23 23 23
16 16 16 16 16 16 16 15 15 15 15 15 15 16 16 17 17 18 18 19 19 19 19 19 20 20 20 20 20 21 21 22 23 23 23 23 24 24
17 17 16 16 16 17 17 17 17 17 17 17 18 18 18 18 18 19 19 20 20 21 21 21 22 22 22 22 22 23 23 23 23 23 24 25 25 26
18 18 18 18 18 18 18 18 18 19 19 20 20 20 20 20 20 20 20 21 21 22 22 22 23 23 24 24 24 24 24 24 24 25 25 26 27 27
19 19 19 19 19 19 19 19 19 20 20 21 21 21 22 22 22 21 21 22 22 22 23 23 24 24 25 26 26 26 25 25 26 26 27 27 28 29
20 20 20 20 19 20 20 19 20 20 21 22 22 22 23 23 22 22 23 23 23 23 23 24 25 25 25 26 26 26 27 27 27 28 28 29 30 30
21 21 21 21 20 20 20 20 20 21 21 22 23 24 24 23 24 24 25 24 24 25 25 25 26 26 27 28 28 28 28 28 29 29 30 30 31 32
21 21 21 21 21 21 21 21 21 21 22 22 23 23 23 24 24 25 25 26 26 26 27 27 28 28 28 29 29 30 30 30 30 30 30 31 32 33
22 22 22 22 22 21 21 22 22 22 23 23 23 23 23 24 25 26 27 27 28 28 28 28 29 29 30 30 30 31 31 31 31 31 32 32 33 34
24 23 23 23 23 23 23 23 24 24 24 25 25 25 25 26 26 26 27 27 27 27 28 28 29 29 30 31 31 31 31 32 32 33 33 34 34 35
25 25 25 25 25 25 25 25 26 26 26 26 27 27 27 27 28 28 27 27 27 27 28 28 28 29 29 30 31 31 32 33 33 34 34 35 36 36
26 26 26 26 27 27 27 28 28 28 28 28 27 27 28 28 28 28 27 28 28 28 28 28 28 29 30 31 31 32 32 32 33 34 35 36 37 37
27 28 28 28 27 27 28 28 28 28 28 28 28 28 28 29 29 29 29 29 29 29 29 29 30 31 31 31 32 32 33 33 33 34 35 37 38 38
Wind_Direction
243 246 247 245 240 236 243 249 255 260 259 261 267 273 281 291 300 305 303 303 306 311 314 317 316 322 324 323 322 324 329 331 333 333 330 322 317 313
244 245 245 245 243 243 246 250 252 254 258 261 266 270 278 287 295 302 305 310 309 313 315 319 323 327 325 323 320 319 322 325 327 327 327 321 317 314
243 243 244 245 245 245 244 247 246 249 254 260 267 272 276 283 290 296 298 303 308 313 313 318 323 327 327 326 323 320 320 321 320 319 320 318 315 314
244 243 242 241 244 240 240 243 244 249 255 261 267 272 277 284 289 293 295 300 304 308 311 318 321 323 323 323 322 320 319 319 319 318 319 317 314 314
244 240 239 238 238 238 239 243 244 250 258 264 269 273 277 280 285 289 293 298 301 300 306 314 318 319 320 321 322 320 318 318 318 318 318 316 314 312
243 241 239 238 239 240 241 243 248 252 257 265 269 273 276 279 283 286 291 297 300 303 304 308 313 314 316 318 320 320 318 317 318 317 315 312 312 311
241 241 239 240 242 243 245 247 248 251 257 263 268 273 275 279 282 284 289 295 299 301 303 306 309 312 314 316 317 318 318 317 318 317 315 311 310 309
242 244 243 241 243 245 249 252 252 255 259 266 270 271 275 278 281 284 288 292 298 299 301 303 306 308 310 312 314 315 315 315 316 316 316 316 314 312
242 246 246 245 247 247 249 252 255 259 263 268 271 272 275 278 280 283 287 291 293 296 300 301 302 303 306 308 311 313 313 314 314 314 314 315 316 316
245 249 249 246 248 250 250 254 256 259 264 268 271 274 276 277 279 283 287 289 291 293 297 299 300 302 303 306 308 309 310 311 311 311 311 313 314 315
245 250 250 249 250 251 253 255 259 263 266 271 274 275 276 278 279 282 286 289 289 290 293 296 298 301 302 303 305 306 307 309 310 310 311 312 313 313
245 250 251 252 253 254 255 256 257 261 265 270 274 276 277 278 280 282 284 286 287 289 291 293 295 297 299 300 302 304 305 307 309 310 310 311 312 312
249 251 252 253 254 255 258 258 260 263 266 270 275 277 278 278 280 283 286 288 288 289 290 291 293 293 295 298 299 301 303 305 306 308 310 311 311 311
250 252 254 257 258 258 259 259 261 264 268 272 277 279 280 280 281 283 286 288 288 289 290 291 292 293 294 296 297 299 301 303 304 306 307 309 310 309
250 252 254 258 259 260 261 261 264 267 270 273 276 278 280 281 282 282 284 287 289 290 291 290 292 294 294 295 295 297 298 300 301 303 304 305 307 308
253 254 256 259 260 261 263 264 267 269 271 273 275 277 279 280 281 283 285 287 288 289 290 292 293 294 294 295 295 296 297 299 300 301 302 303 305 306
254 255 257 259 261 262 263 265 268 271 274 277 278 279 280 279 280 283 285 287 288 289 290 292 293 294 294 294 295 295 296 298 299 299 300 302 304 305
251 254 256 258 260 261 262 265 269 272 277 279 281 281 280 280 282 284 285 287 288 289 289 290 290 292 293 294 294 295 296 297 298 299 299 300 302 305
252 255 256 258 261 263 265 267 271 274 277 280 281 281 281 283 285 286 287 288 289 290 290 290 290 290 291 292 293 295 295 296 297 298 299 300 301 303
252 255 258 261 263 265 268 270 272 275 277 280 281 281 281 283 286 288 289 290 290 290 291 292 292 292 291 292 293 295 296 297 297 297 298 300 302 303
254 256 259 261 264 265 268 270 273 275 278 281 282 281 281 283 285 287 288 288 289 290 291 291 293 294 295 295 294 295 295 296 298 299 298 299 300 302
256 258 260 263 265 267 268 270 273 275 277 280 281 281 282 283 283 283 284 285 287 289 289 291 293 294 296 297 297 298 298 298 299 300 301 301 301 302
256 259 262 264 266 268 269 271 273 274 276 278 280 280 282 282 281 281 283 285 287 288 290 291 292 294 295 296 297 298 299 300 301 302 302 302 302 302
Height
5838 5838 5838 5838 5838 5838 5839 5839 5839 5838 5838 5838 5838 5837 5837 5836 5835 5834 5833 5831 5830 5828 5827 5825 5823 5821 5820 5818 5816 5814 5812 5809 5805 5803 5800 5799 5797 5796
5836 5836 5836 5836 5837 5837 5837 5837 5837 5837 5836 5836 5836 5836 5835 5834 5833 5832 5831 5829 5828 5827 5825 5823 5822 5820 5818 5816 5814 5812 5810 5807 5805 5802 5800 5798 5796 5794
5834 5834 5834 5835 5835 5835 5835 5835 5835 5835 5835 5834 5834 5834 5833 5832 5831 5830 5829 5828 5827 5825 5823 5822 5820 5818 5816 5814 5812 5810 5808 5806 5803 5801 5798 5796 5794 5792
5832 5832 5832 5833 5833 5833 5833 5833 5833 5833 5833 5833 5832 5832 5831 5830 5829 5828 5827 5826 5825 5823 5822 5820 5818 5816 5814 5812 5810 5808 5806 5804 5802 5799 5796 5794 5791 5789
5829 5830 5830 5830 5831 5831 5831 5831 5831 5831 5831 5831 5830 5830 5829 5828 5827 5826 5825 5824 5823 5821 5820 5818 5816 5814 5812 5810 5808 5805 5803 5801 5799 5797 5794 5791 5788 5786
5826 5827 5827 5828 5828 5829 5829 5829 5829 5829 5829 5828 5828 5827 5827 5826 5825 5824 5823 5822 5820 5819 5817 5816 5814 5812 5810 5807 5805 5803 5801 5798 5796 5793 5790 5788 5785 5782
5824 5824 5825 5825 5826 5826 5826 5826 5826 5826 5826 5826 5825 5825 5824 5823 5823 5822 5821 5819 5818 5816 5815 5813 5811 5809 5807 5805 5802 5800 5798 5795 5792 5790 5787 5784 5781 5778
5821 5822 5822 5823 5823 5823 5824 5824 5824 5824 5824 5823 5822 5822 5821 5820 5819 5819 5818 5816 5815 5813 5812 5810 5808 5806 5804 5802 5799 5797 5794 5792 5789 5786 5783 5780 5776 5773
5818 5819 5819 5820 5820 5820 5820 5820 5820 5820 5820 5820 5819 5819 5818 5817 5816 5815 5814 5813 5812 5810 5808 5807 5804 5802 5800 5798 5796 5793 5790 5788 5785 5782 5779 5776 5772 5769
5814 5815 5816 5816 5816 5817 5817 5817 5817 5817 5816 5816 5816 5815 5814 5813 5813 5812 5810 5809 5808 5806 5804 5803 5801 5799 5796 5794 5791 5789 5786 5783 5780 5777 5774 5771 5768 5764
5811 5811 5812 5812 5813 5813 5813 5813 5813 5813 5812 5812 5811 5811 5810 5809 5808 5807 5806 5805 5803 5802 5800 5798 5796 5794 5792 5789 5787 5784 5781 5778 5775 5772 5769 5766 5763 5759
5806 5807 5807 5808 5808 5809 5809 5809 5809 5809 5808 5808 5807 5806 5805 5804 5803 5802 5801 5800 5798 5797 5795 5793 5791 5789 5787 5784 5781 5779 5776 5773 5770 5767 5764 5761 5757 5754
5802 5802 5803 5803 5804 5804 5804 5804 5804 5804 5803 5803 5802 5801 5800 5799 5798 5797 5795 5794 5793 5791 5789 5787 5785 5783 5781 5779 5776 5773 5770 5767 5764 5761 5758 5755 5751 5748
5797 5797 5798 5798 5799 5799 5799 5799 5799 5798 5798 5797 5797 5796 5795 5794 5792 5791 5790 5788 5786 5785 5783 5781 5779 5777 5774 5772 5770 5767 5764 5761 5758 5755 5752 5749 5745 5741
5791 5792 5792 5793 5793 5793 5793 5793 5793 5793 5792 5791 5791 5790 5789 5787 5786 5785 5783 5782 5780 5778 5776 5774 5772 5770 5768 5765 5763 5760 5757 5754 5751 5748 5745 5742 5738 5735
5785 5786 5786 5787 5787 5787 5787 5787 5787 5786 5786 5785 5784 5783 5782 5781 5780 5778 5777 5775 5774 5771 5769 5767 5765 5763 5760 5758 5755 5753 5750 5747 5744 5741 5738 5734 5731 5727
5778 5779 5780 5780 5781 5781 5781 5781 5780 5780 5779 5778 5777 5776 5775 5774 5773 5771 5770 5768 5766 5764 5762 5760 5757 5755 5752 5750 5747 5745 5742 5739 5736 5733 5730 5726 5723 5719
5772 5773 5773 5774 5774 5774 5774 5774 5774 5773 5772 5772 5770 5769 5768 5767 5765 5764 5762 5760 5758 5756 5754 5752 5749 5747 5745 5742 5739 5737 5734 5731 5728 5724 5721 5717 5714 5710
5765 5766 5766 5767 5767 5768 5768 5767 5767 5766 5766 5764 5763 5762 5761 5759 5758 5756 5754 5752 5750 5748 5745 5743 5741 5738 5736 5734 5731 5728 5725 5722 5719 5715 5712 5708 5705 5701
5758 5759 5759 5760 5760 5760 5760 5760 5760 5759 5758 5757 5755 5754 5753 5751 5750 5748 5745 5743 5741 5739 5736 5734 5731 5729 5726 5724 5722 5719 5716 5712 5709 5706 5703 5699 5695 5691
5751 5751 5752 5753 5753 5753 5752 5752 5752 5751 5750 5749 5747 5746 5744 5743 5741 5739 5737 5735 5732 5730 5728 5725 5723 5720 5717 5714 5712 5710 5706 5703 5699 5696 5692 5689 5685 5681
5742 5743 5744 5744 5744 5744 5744 5744 5743 5742 5741 5740 5739 5737 5736 5734 5732 5730 5728 5726 5724 5722 5719 5717 5714 5711 5709 5706 5703 5700 5697 5693 5689 5685 5681 5678 5674 5670
5734 5734 5735 5735 5735 5735 5735 5735 5734 5733 5732 5731 5730 5728 5727 5725 5723 5721 5719 5718 5715 5713 5711 5708 5706 5703 5700 5697 5694 5690 5687 5683 5680 5676 5672 5667 5663 5659